Wind_Speed
32 27 26 28 31 31 32 31 30 31 36 44 49 55 48 41 49 45 41 38 40 41 41 39 37 35 35 35 33 34 32 32 33 34 33 26 26 27 23 25 24 25 25
30 30 30 27 29 33 36 34 35 34 31 31 38 43 50 44 38 31 30 29 35 39 39 36 35 33 34 33 35 36 37 35 35 36 33 29 24 24 27 26 25 23 24
31 33 34 39 34 30 35 36 36 37 36 31 29 32 36 32 27 3 28 24 29 33 36 36 35 34 36 35 36 37 37 37 36 36 32 27 26 23 27 25 22 22 19
27 28 28 29 33 34 36 37 37 34 32 32 28 27 27 31 13 11 18 33 38 48 37 36 33 34 36 35 36 37 36 37 35 34 34 33 28 20 20 25 24 25 22
24 24 23 23 24 26 32 36 36 32 29 29 29 27 28 30 31 23 31 19 44 43 45 41 34 35 35 38 38 39 36 36 35 33 33 30 27 22 23 23 23 23 21
24 24 25 25 25 26 27 28 30 29 28 29 31 29 27 28 28 29 37 44 52 46 42 46 46 41 36 33 39 41 40 34 36 35 35 33 29 22 22 22 20 21 20
25 25 26 26 28 29 29 22 22 25 25 27 28 27 27 25 24 20 30 40 42 39 31 34 50 51 33 32 38 43 41 35 32 28 29 29 28 24 25 22 24 21 21
25 26 24 25 30 25 25 19 15 13 16 20 22 24 24 22 21 22 29 36 41 40 27 31 30 39 49 47 37 42 44 38 34 31 27 27 25 26 24 26 24 22 20
24 26 24 26 31 27 26 17 10 14 16 18 20 21 21 20 20 22 21 27 30 32 31 35 32 28 32 38 41 41 36 34 32 32 32 31 28 26 25 25 25 23 23
23 25 23 26 28 32 7 2 10 12 13 15 15 19 19 17 16 15 16 19 21 22 25 30 32 30 29 31 35 36 36 34 30 29 28 30 30 28 26 25 26 25 25
18 20 18 23 27 24 18 15 15 6 9 9 11 17 16 17 15 18 17 15 17 16 15 18 21 20 23 24 28 31 33 34 30 25 23 25 27 24 23 23 22 24 23
17 15 15 16 21 19 20 30 33 19 14 9 3 9 8 7 7 11 12 13 13 12 9 10 9 8 8 8 11 16 19 20 19 17 16 19 21 21 20 21 20 21 24
16 15 17 13 13 16 17 22 18 18 20 20 23 24 21 18 18 13 8 7 7 7 8 8 8 8 7 7 7 7 8 11 12 11 9 9 14 13 13 15 18 19 17
15 15 19 8 7 11 16 18 20 21 17 20 20 20 20 17 17 17 15 10 7 6 5 5 4 3 3 3 3 3 3 3 5 8 9 9 12 14 16 18 20 21 22
14 17 24 9 4 12 13 15 17 19 19 16 19 18 16 16 16 14 11 9 8 10 13 13 11 9 10 9 8 8 7 4 3 2 2 2 3 3 5 8 10 12 15
9 17 21 20 17 12 10 11 13 16 15 15 15 15 15 13 12 12 10 9 8 9 9 9 10 10 10 9 7 5 4 1 1 3 6 8 10 10 9 6 5 7 11
10 14 16 17 14 20 24 6 9 13 16 15 16 15 11 10 9 9 8 7 8 5 6 8 8 7 7 8 4 4 4 2 5 10 11 10 8 6 3 2 5 10 10
9 5 8 15 14 14 18 19 18 11 10 10 11 18 19 17 13 15 12 3 7 9 6 3 2 2 1 3 5 7 8 7 8 5 5 3 4 4 4 4 3 6 7
11 6 5 11 8 9 11 11 11 9 13 11 7 12 11 16 12 9 14 13 9 9 4 3 2 4 8 5 6 6 5 5 5 7 3 4 3 3 3 8 11 8 8
1 9 11 13 6 6 10 10 7 8 8 9 11 7 5 12 9 8 6 4 5 4 3 2 3 4 5 6 9 7 5 2 1 4 2 4 6 8 9 11 8 8 8
10 6 7 12 13 11 10 10 13 9 3 8 10 8 6 11 13 11 10 7 9 7 8 10 8 11 7 8 6 8 11 10 7 7 9 9 7 11 12 11 12 11 12
8 7 8 8 9 8 8 10 9 12 10 11 7 6 5 6 9 14 14 13 14 14 1 7 7 6 8 10 9 5 4 5 5 9 11 9 12 14 16 18 16 19 17
6 4 5 14 11 10 12 14 16 20 16 11 11 9 9 8 7 8 5 7 9 8 7 4 4 2 4 4 8 10 12 14 14 14 13 14 15 17 19 20 21 22 21
6 7 7 11 10 10 10 13 14 17 15 10 9 8 9 9 10 11 14 15 9 5 5 7 7 10 11 12 10 9 9 13 16 19 18 19 19 19 18 16 16 17 18
7 5 9 10 9 9 7 7 9 14 12 14 14 14 12 13 15 17 20 17 17 13 9 6 9 10 11 14 15 16 17 17 20 19 19 21 21 21 23 25 27 25 22
8 7 6 8 9 9 8 8 10 13 12 11 11 8 6 8 12 14 17 17 17 17 17 15 13 17 19 20 21 21 22 24 25 24 23 22 23 25 24 27 27 27 26
Wind_Direction
295 303 293 279 277 284 279 277 277 273 263 253 250 250 247 243 239 234 233 236 236 235 238 243 244 246 246 245 243 241 247 246 246 257 267 265 262 258 252 263 270 277 279
293 284 283 280 274 270 273 273 278 275 275 271 258 255 250 244 228 196 210 232 234 239 240 238 244 244 243 245 248 243 245 248 251 260 267 268 264 256 249 256 262 266 278
296 291 291 276 272 270 263 268 270 271 272 273 271 265 260 243 225 110 212 256 244 236 242 238 241 247 249 245 245 247 245 248 251 255 259 267 272 262 247 251 255 263 268
312 308 302 294 283 273 271 270 272 275 265 268 268 264 260 253 229 297 303 249 262 246 248 242 240 242 249 251 251 250 251 253 250 250 257 266 269 260 248 247 253 262 269
324 324 316 300 290 279 271 271 270 269 260 260 263 258 258 247 239 231 210 201 242 247 245 245 238 237 248 250 255 256 252 250 251 249 252 256 257 249 238 244 251 258 268
332 330 323 311 305 301 294 281 269 263 255 255 253 249 252 243 241 231 231 226 234 247 257 250 246 240 238 247 255 255 252 251 252 250 251 253 253 247 246 248 249 250 263
343 335 330 324 319 313 305 287 270 257 253 248 243 236 238 236 236 237 222 224 224 244 250 249 235 230 237 254 251 250 249 248 253 251 252 252 253 244 240 236 242 251 264
337 338 337 333 335 316 308 286 270 248 239 236 235 229 232 231 232 223 218 231 234 237 245 248 247 237 239 261 244 249 243 243 244 248 248 254 252 249 245 255 252 246 252
345 346 0 352 348 331 293 271 260 257 241 238 244 238 230 226 227 228 224 228 229 240 240 244 245 241 228 235 239 243 242 248 246 247 251 251 250 245 248 249 254 257 262
356 350 5 356 355 359 17 322 291 261 264 251 246 235 228 224 226 220 220 223 228 235 244 247 248 244 237 233 235 239 243 244 243 248 249 244 247 245 247 249 255 253 259
357 344 351 3 7 12 51 45 19 298 247 243 237 223 220 222 223 226 213 211 215 219 227 235 237 239 234 236 237 239 239 239 240 238 244 247 250 246 241 244 251 257 259
356 350 352 352 4 18 38 39 28 63 91 142 138 131 169 173 212 204 196 208 215 220 226 232 221 214 220 223 236 228 220 221 231 241 250 252 233 229 238 257 257 261 259
348 352 358 1 10 27 43 57 49 68 85 87 82 87 82 84 91 101 142 149 179 233 192 158 149 161 168 173 197 203 211 219 221 220 233 250 247 246 241 244 252 257 256
343 8 6 3 23 43 63 71 67 68 71 86 79 83 83 79 74 76 74 85 116 128 141 149 151 144 175 160 194 191 201 227 231 249 258 261 253 250 248 253 260 262 268
352 18 28 43 24 46 55 59 63 65 69 80 63 75 76 75 70 68 64 61 76 98 97 95 85 99 106 108 104 125 127 127 108 153 170 255 268 263 251 261 274 273 272
11 25 27 30 56 33 30 50 70 65 59 59 64 61 64 66 67 62 59 63 82 101 85 83 87 78 92 76 76 88 102 124 216 266 261 249 257 275 283 272 268 284 301
31 33 28 7 44 44 41 48 63 81 65 59 58 48 46 55 56 41 40 69 77 103 74 88 93 81 111 118 129 147 155 222 288 293 277 264 263 274 312 348 277 263 272
12 23 47 48 40 32 38 48 49 51 36 41 69 64 64 57 57 45 33 119 86 80 91 79 133 122 328 294 283 282 273 272 302 335 25 3 348 359 357 7 293 284 286
37 77 34 20 58 39 26 24 33 35 35 38 83 62 63 40 37 39 55 72 76 57 43 76 286 320 333 344 354 336 298 272 284 300 5 45 39 5 358 359 340 298 280
310 28 21 7 13 53 22 33 46 39 32 35 43 20 38 12 23 25 5 67 90 72 70 325 303 289 297 298 312 331 339 267 349 334 323 336 327 302 321 332 347 327 321
45 35 18 41 53 43 37 20 19 0 28 60 33 21 33 20 34 10 356 16 312 260 251 286 276 279 278 287 296 330 350 2 305 314 310 271 272 293 285 290 291 297 299
32 20 15 14 16 19 4 360 351 28 21 26 31 75 71 77 76 74 71 66 71 60 13 243 220 219 258 257 250 255 290 300 302 294 306 306 283 283 284 280 278 284 285
10 8 12 23 35 41 58 53 48 48 43 40 44 52 51 42 20 14 42 49 40 45 35 29 44 257 258 230 228 227 239 248 256 261 266 274 278 288 293 286 282 279 283
79 40 24 41 45 45 46 46 44 35 56 56 59 55 28 9 358 348 337 328 331 312 356 9 324 306 300 300 299 301 268 261 257 254 269 270 271 280 290 291 292 289 289
67 58 34 22 17 17 14 29 36 30 26 38 29 28 13 348 335 333 331 332 326 321 325 302 324 301 296 303 308 302 304 292 298 294 282 282 286 277 263 274 278 280 285
50 49 22 5 356 350 347 346 1 5 6 6 2 2 15 18 20 354 344 344 335 328 325 304 300 299 297 295 296 296 296 294 294 295 297 296 292 284 275 268 264 267 272
Height
1493 1492 1491 1489 1488 1485 1483 1483 1482 1481 1481 1481 1485 1482 1482 1482 1483 1488 1495 1501 1506 1507 1510 1513 1515 1521 1525 1529 1532 1533 1534 1536 1535 1535 1536 1538 1538 1538 1538 1540 1539 1539 1539
1486 1483 1481 1481 1479 1477 1476 1475 1474 1473 1474 1474 1474 1474 1474 1476 1466 1452 1481 1498 1499 1504 1505 1506 1507 1511 1515 1520 1526 1526 1526 1528 1531 1529 1530 1532 1533 1533 1532 1533 1533 1533 1533
1478 1475 1472 1471 1470 1468 1467 1467 1467 1465 1464 1465 1467 1465 1457 1465 1467 1447 1458 1490 1490 1493 1499 1500 1500 1504 1506 1510 1515 1519 1520 1521 1522 1523 1521 1524 1526 1527 1526 1527 1528 1528 1528
1472 1468 1464 1461 1459 1458 1457 1456 1456 1456 1458 1458 1459 1459 1461 1456 1448 1459 1474 1475 1480 1486 1490 1491 1490 1494 1498 1501 1505 1510 1513 1515 1515 1515 1515 1516 1519 1520 1520 1520 1521 1522 1524
1467 1463 1459 1456 1453 1449 1447 1446 1446 1446 1449 1449 1450 1451 1451 1452 1453 1450 1459 1468 1467 1472 1481 1483 1481 1485 1491 1496 1498 1502 1505 1508 1510 1509 1508 1510 1512 1514 1514 1514 1515 1518 1519
1463 1459 1455 1451 1446 1443 1439 1436 1435 1437 1439 1440 1441 1443 1443 1445 1446 1449 1452 1457 1458 1466 1468 1469 1473 1477 1482 1485 1492 1496 1498 1500 1502 1503 1503 1503 1507 1510 1510 1510 1511 1512 1513
1462 1457 1452 1446 1441 1436 1432 1427 1427 1428 1430 1431 1433 1436 1437 1439 1440 1442 1442 1448 1452 1455 1459 1459 1463 1467 1470 1475 1481 1488 1490 1492 1495 1496 1496 1497 1500 1504 1506 1505 1505 1507 1507
1461 1456 1450 1444 1437 1431 1426 1423 1422 1423 1424 1426 1428 1430 1432 1433 1435 1439 1443 1446 1448 1450 1452 1457 1457 1458 1460 1466 1473 1479 1482 1484 1487 1488 1490 1492 1494 1497 1500 1500 1500 1501 1501
1459 1452 1447 1442 1434 1422 1418 1418 1419 1421 1421 1422 1425 1428 1429 1431 1432 1434 1437 1440 1442 1445 1448 1452 1453 1450 1454 1458 1468 1471 1475 1477 1481 1482 1484 1486 1488 1490 1492 1493 1493 1496 1496
1456 1453 1448 1441 1432 1417 1410 1417 1415 1414 1417 1420 1420 1423 1425 1426 1429 1430 1433 1436 1439 1443 1445 1446 1446 1448 1451 1455 1460 1463 1467 1470 1473 1474 1476 1478 1480 1482 1485 1487 1489 1490 1490
1456 1453 1449 1443 1434 1426 1418 1417 1414 1411 1414 1415 1416 1418 1421 1423 1425 1428 1431 1433 1437 1439 1440 1441 1442 1444 1447 1448 1452 1455 1458 1462 1465 1467 1469 1471 1472 1475 1478 1481 1483 1483 1484
1455 1452 1450 1445 1438 1432 1427 1421 1412 1408 1413 1408 1418 1418 1419 1422 1424 1426 1429 1431 1433 1436 1436 1439 1441 1441 1442 1443 1447 1449 1451 1455 1458 1460 1462 1465 1468 1470 1473 1474 1476 1477 1478
1455 1452 1449 1444 1440 1435 1431 1425 1420 1422 1418 1420 1418 1418 1422 1425 1426 1427 1428 1431 1433 1435 1436 1438 1439 1441 1441 1441 1446 1447 1448 1452 1455 1457 1459 1462 1464 1465 1466 1469 1471 1471 1473
1456 1454 1450 1445 1443 1439 1437 1435 1431 1428 1427 1426 1427 1428 1429 1429 1430 1431 1432 1433 1434 1436 1435 1438 1439 1438 1440 1443 1446 1446 1449 1453 1454 1454 1457 1460 1461 1462 1463 1464 1465 1466 1466
1457 1455 1451 1447 1445 1444 1441 1440 1437 1435 1433 1433 1432 1432 1433 1433 1434 1435 1437 1437 1437 1437 1435 1437 1439 1440 1440 1443 1445 1446 1449 1451 1452 1453 1455 1459 1460 1459 1456 1456 1458 1460 1461
1460 1455 1452 1451 1449 1448 1446 1443 1442 1440 1440 1438 1437 1436 1436 1438 1438 1439 1440 1439 1439 1440 1439 1441 1441 1442 1441 1443 1445 1447 1448 1451 1451 1452 1455 1456 1456 1455 1453 1453 1455 1457 1458
1460 1458 1456 1453 1451 1450 1447 1446 1446 1445 1444 1443 1441 1440 1440 1440 1441 1441 1440 1440 1440 1440 1440 1442 1442 1442 1443 1443 1447 1448 1450 1452 1451 1451 1452 1453 1451 1451 1451 1451 1452 1455 1457
1460 1460 1460 1456 1455 1454 1453 1451 1449 1448 1448 1446 1445 1444 1444 1444 1444 1443 1442 1442 1443 1443 1444 1445 1445 1446 1448 1448 1448 1450 1451 1449 1450 1451 1449 1449 1450 1449 1451 1451 1451 1452 1454
1461 1460 1460 1458 1457 1456 1455 1453 1452 1451 1450 1449 1448 1448 1448 1448 1447 1446 1445 1444 1445 1445 1446 1447 1448 1448 1448 1450 1449 1448 1448 1450 1449 1450 1449 1448 1448 1449 1450 1450 1450 1451 1452
1462 1463 1460 1458 1457 1457 1456 1455 1453 1452 1452 1451 1450 1450 1450 1450 1449 1449 1449 1448 1448 1449 1448 1448 1448 1448 1448 1448 1448 1446 1447 1447 1447 1446 1447 1447 1448 1448 1448 1449 1448 1448 1448
1464 1463 1463 1461 1460 1459 1458 1458 1455 1453 1452 1452 1452 1451 1452 1452 1450 1448 1447 1448 1447 1446 1447 1446 1446 1447 1448 1446 1445 1445 1446 1445 1445 1445 1445 1446 1446 1446 1446 1447 1447 1447 1445
1465 1463 1462 1461 1460 1460 1459 1459 1457 1456 1454 1452 1454 1453 1452 1450 1451 1451 1450 1449 1447 1445 1444 1444 1443 1443 1443 1443 1444 1442 1443 1443 1443 1444 1443 1443 1444 1444 1444 1444 1443 1442 1441
1464 1463 1462 1462 1459 1459 1459 1457 1457 1456 1455 1454 1454 1453 1451 1450 1451 1450 1451 1451 1450 1448 1446 1444 1442 1442 1441 1441 1441 1439 1439 1440 1441 1441 1440 1439 1439 1440 1439 1437 1437 1437 1436
1462 1462 1461 1461 1460 1459 1459 1458 1458 1458 1457 1456 1455 1454 1451 1451 1451 1449 1449 1449 1448 1447 1446 1443 1441 1440 1439 1438 1437 1437 1436 1437 1437 1435 1434 1434 1433 1434 1433 1431 1431 1430 1429
1460 1459 1459 1458 1458 1458 1459 1458 1457 1456 1456 1455 1453 1452 1451 1450 1448 1447 1446 1446 1444 1443 1442 1441 1437 1435 1433 1433 1433 1432 1432 1431 1430 1429 1426 1427 1425 1423 1423 1423 1423 1423 1422
1459 1459 1458 1457 1457 1457 1457 1457 1456 1454 1454 1453 1451 1451 1449 1449 1447 1445 1443 1442 1440 1438 1437 1436 1434 1430 1429 1428 1427 1426 1425 1423 1422 1421 1420 1418 1417 1416 1415 1414 1413 1415 1415